Regional Weather Roundup
Issued by NWS

Home | Current Version | Previous Version | Text Only | Print | Product List | Glossary Off
Versions: 1 2 3 4 5 6 7 8 9 10 11 12 13 14 15 16 17 18 19 20 21 22 23 24 25 26 27 28 29 30 31 32 33 34 35 36 37 38 39 40 41 42 43 44 45 46 47 48 49 50

000
ASUS43 KMKX 291459
RWRWI

WISCONSIN REGIONAL WEATHER ROUNDUP
NATIONAL WEATHER SERVICE MILWAUKEE/SULLIVAN WI
1000 AM CDT SUN MAR 29 2015

NOTE: "FAIR" INDICATES FEW OR NO CLOUDS BELOW 12,000 FEET WITH NO
SIGNIFICANT WEATHER AND/OR OBSTRUCTIONS TO VISIBILITY.

WIZ001-002-006>008-014>016-023>028-291600-
NORTHWEST WISCONSIN

CITY           SKY/WX    TMP DP  RH WIND       PRES   REMARKS
SUPERIOR ARPT  LGT RAIN  36  32  84 SW17      29.50F WCI  26
ASHLAND        CLOUDY    36  28  73 S16G28    29.52F WCI  26
HAYWARD        CLOUDY    34  29  82 S20       29.54F WCI  23
SIREN          DRIZZLE   36  31  83 S15G21    29.54F WCI  26
CUMBERLAND     CLOUDY    32  30  93 S12       29.57F WCI  23
RICE LAKE      CLOUDY    33  30  88 S12       29.60F WCI  25
CHETEK         CLOUDY    33  31  92 S13G20    29.60F WCI  24
LADYSMITH      CLOUDY    32  28  87 S9        29.63F WCI  24
EAU CLAIRE     NOT AVBL
MENOMONIE      CLOUDY    36  32  88 S17G23    29.63F WCI  25
NEW RICHMOND   CLOUDY    35  32  90 S14G23    29.57F WCI  25
OSCEOLA        CLOUDY    36  34  94 S13       29.59F WCI  27
$$

WIZ003>005-009-010-017-018-291600-
NORTH CENTRAL WISCONSIN

CITY           SKY/WX    TMP DP  RH WIND       PRES   REMARKS
MANITOWISH WTR CLOUDY    29  27  92 S14G24    29.56F WCI  19
ARBOR VITAE    CLOUDY    32  28  84 S17G23    29.59F WCI  21
WOODRUFF       CLOUDY    32  28  84 S17G23    29.59F WCI  21
RHINELANDER    LGT SNOW  29  24  82 S15G23    29.63F WCI  18
EAGLE RIVER    MIX PCPN  29  24  79 S9G18     29.61F WCI  21
LAND O LAKES   CLOUDY    30  26  83 S14G22    29.59F WCI  19
PHILLIPS       CLOUDY    31  27  88 S16       29.60F WCI  19
TOMAHAWK       LGT SNOW  29  26  88 S6G18     29.65F WCI  23
MEDFORD        CLOUDY    30  26  86 S13       29.65F WCI  20
MERRILL        MIX PCPN  30  27  88 S9G18     29.68F WCI  21
$$

WIZ029-030-035-036-043>047-291600-
CENTRAL WISCONSIN

CITY           SKY/WX    TMP DP  RH WIND       PRES   REMARKS
WAUSAU         CLOUDY    30  26  85 S14       29.67F WCI  19
MOSINEE        CLOUDY    30  28  93 S13       29.71F WCI  20
MARSHFIELD     CLOUDY    32  28  85 S17       29.68F WCI  21
STEVENS POINT  CLOUDY    29  26  88 S12G17    29.73F WCI  20
WAUPACA        RAIN      34  26  73 S13       29.79F WCI  25
WAUTOMA        NOT AVBL
WISC RAPIDS    CLOUDY    32  27  81 S14G23    29.74F WCI  22
CAMP DOUGLAS   NOT AVBL
$$

WIZ011>013-019>022-031-037>040-048>050-291600-
NORTHEAST WISCONSIN

CITY           SKY/WX    TMP DP  RH WIND       PRES   REMARKS
ANTIGO         FLURRIES  29  25  85 S17       29.68F WCI  17
SHAWANO        DRIZZLE   35  21  57 S7        29.78F WCI  29
OCONTO         CLOUDY    35  20  55 S15       29.79F WCI  25
STURGEON BAY   CLOUDY    34  19  55 S22G30    29.82F WCI  22
GREEN BAY      CLOUDY    37  24  59 S21G30    29.79F WCI  26
MANITOWOC      NOT AVBL
APPLETON       LGT RAIN  32  23  69 S20       29.80F WCI  20
CLINTONVILLE   LGT RAIN  32  23  69 S20G25    29.78F WCI  20
OSHKOSH        FRZ RAIN  33  25  72 S22G36    29.80F WCI  21
$$

WIZ032>034-041-042-053>061-291600-
SOUTHWEST WISCONSIN

CITY           SKY/WX    TMP DP  RH WIND       PRES   REMARKS
LA CROSSE      CLOUDY    37  31  78 S14G24    29.73F WCI  28
SPARTA         CLOUDY    34  30  86 S9G17     29.75F WCI  26
VIROQUA        CLOUDY    33  31  96 S14       29.76F WCI  23
BOSCOBEL       CLOUDY    35  29  78 S9G21     29.83F WCI  28
PRAIRIE DU CHI CLOUDY    34  28  79 S14G29    29.82F WCI  25
PLATTEVILLE    CLOUDY    32  29  90 S12       29.86S WCI  23
$$

WIZ056-057-062-063-064-067-068-291600-
SOUTH CENTRAL WISCONSIN

CITY           SKY/WX    TMP DP  RH WIND       PRES   REMARKS
REEDSBURG      CLOUDY    32  28  88 S12       29.78F WCI  23
BARABOO/DELLS  MIX PCPN  31  27  84 S13G18    29.77F WCI  22
LONE ROCK      NOT AVBL
MINERAL POINT  CLOUDY    34  30  86 S13       29.81F WCI  25
MADISON        FRZ RAIN  33  26  75 S24G31    29.84F WCI  20
MIDDLETON      CLOUDY    34  28  78 S13G24    29.84F WCI  25
WATERTOWN      FLURRIES  32  24  72 S14G24    29.88F WCI  22
MONROE         MIX PCPN  32  30  93 S26G36    29.87F WCI  18
JANESVILLE     LGT RAIN  34  27  75 S23G29    29.92F WCI  22
$$

WIZ051-052-058>065-066-070>072-291600-
SOUTHEAST WISCONSIN

CITY           SKY/WX    TMP DP  RH WIND       PRES   REMARKS
MILWAUKEE      CLOUDY    37  17  44 S21G32    29.93F WCI  26
WAUKESHA       CLOUDY    34  16  47 S17G29    29.98F WCI  23
MILWAUKEE/TIMM PTSUNNY   36  16  44 S18G30    29.93F WCI  25
RACINE         CLOUDY    38  16  40 S17G26    29.96F WCI  28
BURLINGTON     CLOUDY    34  17  50 S21G30    29.95F WCI  23
KENOSHA        PTSUNNY   37  17  44 S24G33    29.96F WCI  26
FOND DU LAC    FRZ RAIN  34  24  67 S25G38    29.83F WCI  21
SHEBOYGAN      PTSUNNY   36  19  50 S23       29.88F WCI  24
WEST BEND      CLOUDY    34  18  51 S14G20    29.90F WCI  24
JUNEAU         RAIN      32  23  69 S22       29.88F WCI  19
$$

LSZ147-162-291600-
LAKE SUPERIOR

STATION/POSITION TIME  TEMP    WIND        PRES    WAVE
                       AIR SEA DIR/SP/G            HT/PER
                 (UTC) (F)     (DEG/KT/KT) (MB)    (FT/S)
DEVILS ISLAND    1400   36     200/ 13/ 16 1000.2F
PORT WING        1420   37     200/ 13      999.7F
SAXON HARBOR     1400   37     200/ 13/ 24 1000.3
$$

LMZ867-665-643>646-291600-
LAKE MICHIGAN

STATION/POSITION TIME  TEMP    WIND        PRES    WAVE
                       AIR SEA DIR/SP/G            HT/PER
                 (UTC) (F)     (DEG/KT/KT) (MB)    (FT/S)
NORTHPORT PIER   1400   34     180/ 10/ 19 1011.2F
SISTER BAY       1332   34     180/ 25/ 35   N/A
KEWAUNEE LAKESHO 1400   34     200/ 22/ 28 1012.4F
SHEBOYGAN LAKESH 1400   34     180/ 27/ 32 1015.1F
PORT WASHINGTON  1420   36     190/ 14/ 19 1014.9F
MILWAUKEE LAKESH 1400   35     200/ 19/ 25   N/A
KENOSHA   LAKESH 1400   36     210/ 16/ 24 1017.3F
$$

TC  - TEMPERATURE IN CELSIUS
VSB - VISIBILITY IN STATUTE MILES
WCI - WIND CHILL INDEX
HX  - HEAT INDEX



USA.gov is the U.S. government's official web portal to all federal, state and local government web resources and services.